Regional Weather Roundup
Issued by NWS Sterling, VA

Home | Current Version | Previous Version | Graphics & Text | Print | Product List | Glossary On
Versions: 1 2 3 4 5 6 7 8 9 10 11 12 13 14 15 16 17 18 19 20 21 22 23 24 25 26 27 28 29 30 31 32 33 34 35 36 37 38 39 40 41 42 43 44 45 46 47 48 49
000
ASUS41 KLWX 201410
RWRLWX

REGIONAL WEATHER ROUNDUP
NATIONAL WEATHER SERVICE BALTIMORE MD/WASHINGTON DC
900 AM EST SAT DEC 20 2014

Note: "FAIR" indicates few or no clouds below 12,000 feet
with no significant weather and/or obstructions to visibility.
 TC=TEMPERATURE CELSIUS

 * =Non NWS site. Station does not report precipitation (e.g. rain,
    snow, etc.), thunder, or fog.

DCZ001-MDZ009-015-VAZ040>042-051-053>054-201500-
WASHINGTON METRO

CITY           SKY/WX    TMP DP  RH WIND       PRES   REMARKS
WASHINGTON NAT CLOUDY    34  20  56 N7        30.34R
DULLES         CLOUDY    28  21  75 CALM      30.32R
ANDREWS AFB    SUNNY     25  20  82 N5        30.32R
FT BELVOIR     CLOUDY    27  24  90 CALM      30.34R
QUANTICO       CLOUDY    30  23  75 CALM      30.35R
COLLEGE PARK*  CLOUDY    28  27  93 CALM      30.32R
LEESBURG*      CLOUDY    30  27  86 CALM      30.33R
GAITHERSBURG*  CLOUDY    27  19  74 CALM      30.33R

$$

MDZ006>007-011-014-201500-
BALTIMORE METRO

CITY           SKY/WX    TMP DP  RH WIND       PRES   REMARKS
BWI AIRPORT    CLOUDY    29  21  72 CALM      30.32R
MD SCIENCE CTR   N/A     32  20  61 MISG      30.33R
MARTIN STATE   PTSUNNY   30  27  86 W5        30.33R
ANNAPOLIS      CLOUDY    32  23  69 NW8       30.33R WCI  25

$$

MDZ012-015-019>023-201500-
MARYLAND EASTERN SHORE

CITY           SKY/WX    TMP DP  RH WIND       PRES   REMARKS
OCEAN CITY     SUNNY     29  24  82 NW6       30.31R
SALISBURY      MOSUNNY   31  25  78 CALM      30.30S
BAY BRIDGE AP*   N/A     34  23  64 N8        30.33R WCI  27
CAMBRIDGE*     CLOUDY    36  27  69 NW6       30.32R
EASTON*        SUNNY     32  27  80 N6        30.33F

$$

MDZ017>025-201500-
SOUTHERN MARYLAND

CITY           SKY/WX    TMP DP  RH WIND       PRES   REMARKS
PATUXENT RIVER CLOUDY    33  21  61 NW9       30.33R WCI  25
ST INIGOES     CLOUDY    32  22  66 W5        30.34R
LEONARDTOWN*   CLOUDY    30  23  74 CALM      30.34R

$$

MDZ003>005-201500-
NORTH CENTRAL MARYLAND

CITY           SKY/WX    TMP DP  RH WIND       PRES   REMARKS
FREDERICK*     SUNNY     27  21  80 CALM      30.35R
HAGERSTOWN APT CLOUDY    26  19  74 NE3       30.28R
WESTMINSTER*   CLOUDY    27  19  74 N3        30.27S

$$

MDZ501>502-201500-
WESTERN MARYLAND

CITY           SKY/WX    TMP DP  RH WIND       PRES   REMARKS
OAKLAND*       CLOUDY    19 N/A N/A CALM      30.15R
CUMBERLAND*    CLOUDY    27  23  86 S3        30.33R

$$

VAZ025>031-201500-
SHENANDOAH VALLEY

CITY           SKY/WX    TMP DP  RH WIND       PRES   REMARKS
WINCHESTER*    CLOUDY    28  21  74 CALM      30.29F
FRONT ROYAL*   FAIR      27  23  86 CALM      30.29R
LURAY*         FAIR      27  27 100 CALM      30.29R
NEW MARKET*    FAIR      25  22  89 SW3       30.28R
STAUNTON*      PTSUNNY   26  22  85 CALM      30.28F
WAYNESBORO*    PTSUNNY   26  22  85 CALM      30.25S

$$

WVZ021-048>050-054>055-201500-
EASTERN WEST VIRGINIA PANHANDLE

CITY           SKY/WX    TMP DP  RH WIND       PRES   REMARKS
MARTINSBURG    CLOUDY    25  19  78 SW3       30.31R
PETERSBURG*    CLOUDY    25  23  93 CALM      30.29S

$$

VAZ036>039-050-201500-
CENTRAL FOOTHILLS

CITY           SKY/WX    TMP DP  RH WIND       PRES   REMARKS
CHARLOTTESVILL CLOUDY    30  24  78 CALM      30.29F
CULPEPER*      CLOUDY    27  25  93 CALM      30.32R
ORANGE*        CLOUDY    28  27  93 CALM      30.32F
GORDONSVILLE*  FAIR      27  24  90 CALM      30.30S
WARRENTON*     FAIR      27  27 100 CALM      30.31F

$$

VAZ055>057-201500-
NORTH AND CENTRAL PIEDMONT

CITY           SKY/WX    TMP DP  RH WIND       PRES   REMARKS
FREDERICKSBRG* CLOUDY    30  26  84 CALM      30.32F
STAFFORD*      CLOUDY    26  26 100 CALM      30.37F

$$

NCZ024-NYZ072-PAZ021-071-VAZ022-071-201500-
OTHER REGIONAL OBSERVATIONS

CITY           SKY/WX    TMP DP  RH WIND       PRES   REMARKS
NEW YORK CITY  CLOUDY    30  19  63 VRB3      30.30R
PHILADELPHIA   CLOUDY    33  21  61 NW6       30.32R
PITTSBURGH     CLOUDY    27  19  72 NE5       30.26S
ROANOKE        CLOUDY    32  23  69 E5        30.29R
RICHMOND       CLOUDY    33  23  66 NE6       30.32S
RALEIGH        LGT SNOW  34  27  75 NE6       30.29S FOG

$$

ANZ530>537-201500-
MARINE OBSERVATIONS

STATION/POSITION TIME  TEMP    WIND        PRES
                       AIR SEA DIR/SP/G
                 (UTC) (F)     (DEG/KT/KT) (MB)
THOMAS PT LIGHT  1400   31 40  320/  4/  5 1027.8R
BALT KEY BRIDGE  1400   32     320/  7/  8 1026.4R
COVE POINT       1400   32     350/ 10/ 11 1026.7R
LEWISETTA        1400   33 41  300/  6/  7 1027.3R
SOLOMONS ISLAND  1400      42                N/A

$$



USA.gov is the U.S. government's official web portal to all federal, state and local government web resources and services.